Flag for U.S.A. Weather past 2 weeks in Bryan – College Station, Texas, U.S.A.

Now
79 °F

Sunny.


Feels Like: 82 °F
Forecast: 74 / 90 °F
Wind: 7 mph from South

Location: Easterwood Field

Current Time: Jul 1, 2015 at 8:55:27 PM

Latest Report: Jul 1, 2015 at 7:53 PM


Visibility: 10 mi

Pressure: 29.99 "Hg

Humidity: 77%

Dew point: 71 °F

Location of Bryan – College StationLocation

Historic Weather in Bryan – College Station — Graph

°F

Bryan – College Station temperature yesterday

Maximum temperature yesterday: 90 °F (at 3:53 PM)
Minimum temperature yesterday: 74 °F (at 8:53 PM)
Average temperature yesterday: 79 °F

Past Weeks' High & Low Weather Summary

 TemperatureHumidityPressure
High93 °F (Jun 26, 4:53 PM)97% (Jun 18, 12:53 PM)30.16 "Hg (Jun 18, 12:53 PM)
Low72 °F (Jun 20, 8:53 PM)47% (Jun 26, 4:53 PM)29.82 "Hg (Jun 17, 5:53 AM)
Average81 °F79%30.01 "Hg
* Reported Jun 16 7:53 PM — Jul 1 7:53 PM, Bryan – College Station, Weather by CustomWeather, © 2015

Note: Actual official high and low records may vary slightly from our data, if they occured in-between our weather recording intervals... More about our weather records

Advertising

Bryan – College Station weather history for previous 24 hours

 ConditionsComfort  
Time TempWeatherWind HumidityBarometerVisibility
7:53 PM
Wed, Jul 1
79 °FSunny.7 mph77%29.99 "Hg10 mi
6:53 PM79 °FSunny.8 mph79%29.99 "Hg10 mi
5:53 PM76 °FScattered clouds.6 mph88%30.01 "Hg10 mi
4:53 PM74 °FLight rain. Fog.16 mph91%30.06 "Hg5 mi
3:53 PM88 °FPassing clouds.14 mph63%30.02 "Hg10 mi
2:53 PM84 °FPassing clouds.5 mph67%30.02 "Hg10 mi
1:53 PM80 °FBroken clouds.13 mph74%30.04 "Hg10 mi
12:53 PM87 °FPartly sunny.12 mph65%30.04 "Hg10 mi
11:53 AM85 °FScattered clouds.9 mph70%30.05 "Hg10 mi
10:53 AM83 °FPartly sunny.9 mph77%30.05 "Hg10 mi
9:53 AM80 °FSunny.8 mph81%30.06 "Hg10 mi
8:53 AM77 °FSunny.5 mph88%30.05 "Hg10 mi
7:53 AM74 °FSunny.3 mph94%30.03 "Hg10 mi
6:53 AM72 °FClear.3 mph93%30.03 "Hg10 mi
5:53 AM72 °FClear.5 mph93%30.01 "Hg10 mi
4:53 AM72 °FClear.5 mph93%30.01 "Hg10 mi
3:53 AM73 °FClear.No wind90%30.01 "Hg10 mi
2:53 AM73 °FClear.No wind94%30.02 "Hg10 mi
1:53 AM73 °FClear.3 mph94%30.03 "Hg10 mi
12:53 AM73 °FClear.6 mph97%30.03 "Hg10 mi
10:53 PM
Tue, Jun 30
74 °FClear.7 mph91%30.03 "Hg10 mi
9:53 PM74 °FClear.3 mph94%30.00 "Hg10 mi
8:53 PM74 °FSunny.5 mph94%30.01 "Hg10 mi
Weather by CustomWeather, © 2015

See weather overviewHow to use our weather pages